Гафуров

Таджикистан     40°13′39″N   69°43′46″E
темп.,
°C
ветер,
м/с
пор.,
м/с
влажн.,
%
обл.,
%
осадки,
мм/ч
давл.,
гПа
погр.,
м
17 мая, пн
пн1723:00+25всв232314 0.0 101071
02:00+23в47270 0.0 1010167
05:00+22в48300 0.0 1011232
08:00+25в79260 0.0 1013544
11:00+30в77183 0.0 1012918
14:00+33в33110 0.0 10102421
17:00+33зюз2311100 0.0 10084402
20:00+26ююз342795 0.0 1010120
18 мая, вт
вт1823:00+24ююв11310 0.0 100941
02:00+23вюв22280 0.0 100919
05:00+22в47310 0.0 1010169
08:00+26в68260 0.0 1010495
11:00+31в77170 0.0 1008889
14:00+34всв33100 0.0 10062729
17:00+34юз331086 0.0 10052999
20:00+28зюз5823100 0.0 1006328
19 мая, ср
ср1923:00+26ююз112799 0.0 100698
02:00+24ююз11281 0.0 100522
05:00+23вюв11283 0.0 100517
08:00+27в332347 0.1 1006405
11:00+31св111668 0.1 10051103
14:00+35зсз66104 0.0 10043991
17:00+34зсз571048 0.0 10044323
20:00+26ю462848 0.0 1006177
20 мая, чт
чт2023:00+24юв113121 0.0 100663
02:00+24ююз2229100 0.0 100640
05:00+23юв113086 0.0 100711
08:00+26в4425100 0.0 1009387
11:00+32вюв23159 0.0 10081822
14:00+34зсз651068 0.0 10064618
17:00+32юз671466 0.0 10072465
20:00+28ююз34204 0.0 1008140
21 мая, пт
пт2123:00+26юз12210 0.0 100952
02:00+24в33235 0.0 101060
05:00+23в34285 0.0 1011100
08:00+26в33255 0.0 1012487
11:00+30зсз12190 0.0 10111350
14:00+33зсз75143 0.0 10084032
17:00+33зсз761543 0.0 10073677
20:00+27зюз582970 0.0 1010308